Location: Carimao
(10.4546°N, 66.7419°W)
Time: 07:03:00
(UTC+00:00)

ADEOS Rocket - Pass Details

Date: 19 May 2024
Orbit: 859 x 1305 km, 98.7° (Epoch: 23 June)

Event Time Altitude Azimuth Distance (km) Brightness Sun altitude
Rises 23:31:10 0° 174° (S) 3,458 5.6 -11.9°
Reaches altitude 10° 23:33:29 10° 177° (S) 2,547 4.9 -12.4°
Maximum altitude 23:39:04 65° 258° (WSW) 1,022 3.3 -13.7°
Drops below altitude 10° 23:45:10 10° 340° (NNW) 2,773 6.0 -15.1°
Sets 23:47:47 0° 343° (NNW) 3,788 6.7 -15.7°
